Location: Waco, TX
(31.5480°N, 97.1670°W)
Time: 19:01:12
(UTC-05:00)

ISS - Pass Details

Date: 11 August 2018
Orbit: 401 x 409 km, 51.6° (Epoch: 19 August)

Event Time Altitude Azimuth Distance (km) Brightness Sun altitude
Rises 21:34:14 0° 300° (WNW) 2,318 1.9 -16.1°
Reaches altitude 10° 21:36:36 10° 284° (WNW) 1,457 0.2 -16.5°
Maximum altitude 21:39:11 22° 232° (SW) 943 -1.8 -17.0°
Enters shadow 21:40:44 16° 194° (SSW) 1,152 -1.7 -17.3°
Drops below altitude 10° 21:41:46 10° 179° (S) 1,454 - -17.5°
Sets 21:44:08 0° 163° (SSE) 2,311 - -17.9°
